Location: Cosy Dell
(34.2789°N, 117.4537°W)
Time: 21:04:14
(UTC+00:00)

CENTAUR R/B - Pass Details

Date: 14 July 2020
Orbit: 756 x 1432 km, 63.5° (Epoch: 11 August)

Event Time Altitude Azimuth Distance (km) Brightness Sun altitude
Exits shadow 10:17:40 13° 140° (SE) 2,259 4.3 -24.8°
Maximum altitude 10:20:35 18° 105° (ESE) 2,010 4.4 -24.4°
Drops below altitude 10° 10:24:34 10° 64° (ENE) 2,671 5.6 -23.9°
Sets 10:28:08 0° 47° (NE) 3,755 7.0 -23.4°
